TimeHST,TemperatureF,Dew PointF,Humidity,Sea Level PressureIn,VisibilityMPH,Wind Direction,Wind SpeedMPH,Gust SpeedMPH,PrecipitationIn,Events,Conditions,WindDirDegrees,DateUTC
12:54 AM,70.0,68.0,93,30.02,10.0,SE,4.6,-,N/A,,Mostly Cloudy,140,2012-10-19 10:54:00
1:54 AM,72.0,68.0,87,30.01,10.0,ENE,4.6,-,N/A,,Partly Cloudy,70,2012-10-19 11:54:00
2:54 AM,71.1,69.1,93,30.01,10.0,Calm,Calm,-,N/A,,Overcast,0,2012-10-19 12:54:00
3:54 AM,73.0,68.0,84,30.00,10.0,East,4.6,-,N/A,,Overcast,80,2012-10-19 13:54:00
4:54 AM,75.0,69.1,82,30.00,10.0,NE,8.1,-,N/A,,Mostly Cloudy,50,2012-10-19 14:54:00
5:54 AM,73.9,70.0,87,30.01,10.0,NE,15.0,-,N/A,,Clear,50,2012-10-19 15:54:00
6:54 AM,73.9,69.1,85,30.02,10.0,ENE,13.8,23.0,N/A,,Partly Cloudy,60,2012-10-19 16:54:00
7:54 AM,75.9,69.1,79,30.03,10.0,ENE,12.7,21.9,N/A,,Partly Cloudy,60,2012-10-19 17:54:00
8:54 AM,79.0,68.0,69,30.05,10.0,ENE,18.4,26.5,N/A,,Scattered Clouds,60,2012-10-19 18:54:00
9:54 AM,82.0,66.9,60,30.04,10.0,ENE,18.4,28.8,N/A,,Partly Cloudy,60,2012-10-19 19:54:00
10:54 AM,84.0,64.9,53,30.03,10.0,ENE,15.0,28.8,N/A,,Partly Cloudy,70,2012-10-19 20:54:00
11:54 AM,84.9,66.9,55,29.99,10.0,ENE,24.2,29.9,N/A,,Partly Cloudy,60,2012-10-19 21:54:00
12:54 PM,84.9,66.9,55,29.96,10.0,ENE,21.9,31.1,N/A,,Partly Cloudy,70,2012-10-19 22:54:00
1:54 PM,84.0,68.0,58,29.94,10.0,ENE,21.9,33.4,N/A,,Partly Cloudy,70,2012-10-19 23:54:00
2:54 PM,84.0,70.0,63,29.93,10.0,ENE,24.2,29.9,N/A,,Partly Cloudy,70,2012-10-20 00:54:00
3:54 PM,82.0,66.0,58,29.93,10.0,ENE,23.0,33.4,N/A,,Partly Cloudy,70,2012-10-20 01:54:00
4:54 PM,80.1,66.9,64,29.94,10.0,ENE,20.7,33.4,N/A,,Partly Cloudy,60,2012-10-20 02:54:00
5:54 PM,78.1,64.0,62,29.95,10.0,ENE,16.1,28.8,N/A,,Partly Cloudy,70,2012-10-20 03:54:00
6:54 PM,75.0,66.0,73,29.97,10.0,ENE,19.6,25.3,N/A,,Partly Cloudy,60,2012-10-20 04:54:00
7:54 PM,75.0,66.9,76,29.98,10.0,ENE,16.1,-,N/A,,Partly Cloudy,60,2012-10-20 05:54:00
8:54 PM,75.9,66.0,71,29.99,10.0,ENE,12.7,21.9,N/A,,Partly Cloudy,60,2012-10-20 06:54:00
9:54 PM,75.0,66.0,73,29.99,10.0,ENE,15.0,24.2,N/A,,Clear,70,2012-10-20 07:54:00
10:54 PM,75.0,66.9,76,29.98,10.0,NE,20.7,27.6,N/A,,Clear,50,2012-10-20 08:54:00
11:54 PM,75.9,66.9,74,29.97,10.0,NE,17.3,25.3,N/A,,Clear,50,2012-10-20 09:54:00